Find Kosmos-2268

NORAD ID: 22999 Int'l Des: 1994-011 Owner: VKS Country: RU operational
LEOCIRCULARPOLAR

Live Position

Loading 3D Globe...

About Kosmos-2268

Description loading...

Upcoming Passes

Passes for default location (London). Set your location on the main map for personalized predictions.

Altitude History

Loading altitude history...

Two-Line Element Set

1 22999U 94011A 26107.22788944 .00000024 00000-0 76361-4 0 9999
2 22999 82.5816 19.3433 0010222 346.5674 168.4231 12.61226311481078
Epoch: Apr 17, 2026 • Age: 14 hours

Current Status

Altitude 1433.6 km
Velocity 7.14 km/s
Sub-Earth Point -26.54°S, 70.73°E
Launch Date Feb 12, 1994
Age 32.1 years
Type other

Technical Details

Classification Payload
Mass 225.00 kg
Dry Mass 225.00 kg
Total Mass 225.00 kg
Length 1.60 m
Diameter 0.80 m
Span 7.00 m
Shape Cyl + Ant
Manufacturer NPOPMR
Bus Type Strela-3
Phase Status In Orbit
Owner/State VKS/RU

Most Searched